Simultaneous Nadir Overpasses (SNOs) Predictions

Prediction of SNOs between METOP-A and NPP Satellite Orbit:

Table of predicted SNOs for the next 14.0 days since TLE Epoch: 8/9/2014
Index Date (METOP-A) Time (METOP-A) Lat,Lon (METOP-A) SZA (METOP-A ) Date (NPP) Time (NPP) Lat,Lon (NPP) SZA (NPP ) Distance(km) Time Diff (sec)
1 08/18/2014 16:26:08 -73.86, 107.81 119.08 08/18/2014 16:25:01 -73.89, 104.85 118.91 91.37 67
2 08/18/2014 17:16:52 73.63, -85.40 60.73 08/18/2014 17:15:42 73.64, -87.25 60.83 57.92 70
3 08/18/2014 18:07:36 -73.54, 81.72 119.35 08/18/2014 18:06:25 -73.59, 80.19 119.22 48.59 71
4 08/18/2014 18:58:19 73.36,-111.35 60.51 08/18/2014 18:57:06 73.34,-111.93 60.52 18.49 73
5 08/18/2014 19:49:03 -73.28, 55.78 119.57 08/18/2014 19:47:49 -73.29, 55.50 119.53 8.99 74
6 08/18/2014 20:39:44 73.19,-137.07 60.38 08/18/2014 20:38:33 73.19,-136.96 60.38 3.57 71
7 08/18/2014 21:30:26 -73.21, 30.28 119.61 08/18/2014 21:29:17 -73.19, 30.35 119.61 3.00 69
8 08/18/2014 22:21:05 73.22,-162.34 60.43 08/18/2014 22:20:04 73.23,-162.44 60.45 3.48 61
9 08/18/2014 23:11:48 -73.19, 4.90 119.60 08/18/2014 23:10:47 -73.19, 4.98 119.59 2.54 61
10 08/19/2014 00:02:27 73.21, 172.28 60.43 08/19/2014 00:01:33 73.18, 172.30 60.42 2.59 54
11 08/19/2014 00:53:10 -73.17, -20.48 119.59 08/19/2014 00:52:17 -73.18, -20.39 119.57 3.38 53
12 08/19/2014 01:43:49 73.19, 146.90 60.44 08/19/2014 01:43:03 73.18, 146.93 60.44 1.17 46
13 08/19/2014 02:34:31 -73.20, -45.75 119.54 08/19/2014 02:33:47 -73.18, -45.76 119.55 1.93 44
14 08/19/2014 03:25:11 73.17, 121.51 60.44 08/19/2014 03:24:33 73.18, 121.56 60.46 1.91 38
15 08/19/2014 04:15:53 -73.18, -71.13 119.54 08/19/2014 04:15:17 -73.18, -71.13 119.53 0.05 36
16 08/19/2014 05:06:32 73.20, 96.24 60.49 08/19/2014 05:06:03 73.18, 96.19 60.48 2.98 29
17 08/19/2014 05:57:15 -73.16, -96.51 119.53 08/19/2014 05:56:47 -73.18, -96.50 119.51 1.95 28
18 08/19/2014 06:47:54 73.18, 70.86 60.50 08/19/2014 06:47:33 73.18, 70.82 60.50 1.54 21
19 08/19/2014 07:38:36 -73.19,-121.79 119.48 08/19/2014 07:38:17 -73.18,-121.87 119.49 3.30 19
20 08/19/2014 08:29:16 73.16, 45.48 60.51 08/19/2014 08:29:03 73.17, 45.44 60.52 1.87 13
21 08/19/2014 09:19:58 -73.17,-147.17 119.48 08/19/2014 09:19:47 -73.17,-147.24 119.47 2.44 11
22 08/19/2014 10:10:38 73.14, 20.10 60.51 08/19/2014 10:10:33 73.17, 20.07 60.54 3.50 5
23 08/19/2014 11:01:20 -73.15,-172.55 119.47 08/19/2014 11:01:17 -73.17,-172.61 119.45 2.93 3
24 08/19/2014 11:52:00 73.12, -5.28 60.52 08/19/2014 11:52:02 73.12, -5.19 60.51 3.16 2
25 08/19/2014 12:42:42 -73.14, 162.07 119.46 08/19/2014 12:42:46 -73.12, 162.13 119.48 2.42 4
26 08/19/2014 13:33:22 73.10, -30.67 60.52 08/19/2014 13:33:32 73.12, -30.56 60.53 3.88 10
27 08/19/2014 14:24:04 -73.12, 136.69 119.46 08/19/2014 14:24:16 -73.12, 136.76 119.46 2.18 12
28 08/19/2014 15:14:43 73.13, -55.94 60.57 08/19/2014 15:15:02 73.12, -55.93 60.55 2.02 19
29 08/19/2014 16:05:25 -73.10, 111.31 119.45 08/19/2014 16:05:45 -73.12, 111.39 119.44 3.36 20
30 08/19/2014 16:56:04 73.11, -81.32 60.58 08/19/2014 16:56:31 73.11, -81.30 60.57 0.66 27
31 08/19/2014 17:46:46 -73.13, 86.04 119.40 08/19/2014 17:47:15 -73.12, 86.01 119.42 1.59 29
32 08/19/2014 18:37:26 73.10,-106.70 60.58 08/19/2014 18:38:01 73.11,-106.67 60.59 2.11 35
33 08/19/2014 19:28:08 -73.11, 60.65 119.40 08/19/2014 19:28:45 -73.11, 60.64 119.40 0.59 37
34 08/19/2014 20:18:47 73.13,-131.97 60.64 08/19/2014 20:19:31 73.11,-132.04 60.61 2.85 44
35 08/19/2014 21:09:30 -73.09, 35.27 119.39 08/19/2014 21:10:15 -73.11, 35.27 119.38 2.40 45
36 08/19/2014 22:00:09 73.11,-157.35 60.64 08/19/2014 22:01:01 73.11,-157.41 60.63 1.85 52
37 08/19/2014 22:50:51 -73.12, 10.00 119.34 08/19/2014 22:51:45 -73.11, 9.90 119.36 3.42 54
38 08/19/2014 23:41:31 73.09, 177.27 60.65 08/19/2014 23:42:31 73.11, 177.22 60.66 2.54 60
39 08/20/2014 00:32:13 -73.10, -15.38 119.33 08/20/2014 00:33:15 -73.11, -15.47 119.34 2.91 62
40 08/20/2014 01:22:53 73.07, 151.88 60.65 08/20/2014 01:24:00 73.05, 151.96 60.62 2.89 67
41 08/20/2014 02:13:35 -73.08, -40.76 119.33 08/20/2014 02:14:44 -73.06, -40.73 119.37 3.18 69
42 08/20/2014 03:04:16
